CW9676 Weather Reports


time (UTC)temp
C
wind
direction
speed
KPH
gust
KPH
rain 1hr
cm
rain 24hr
cm
rain mn
cm
humidity
%
barometer
mb
20260906221816 26 321 17.7 32.2 0.00 0.00 0.00 47 1001.9
20260906220816 26 307 19.3 29.0 0.00 0.00 0.00 45 1001.7
20260906215747 27 267 14.5 33.8 0.00 0.00 0.00 43 1001.8
20260906214758 28 283 11.3 33.8 0.00 0.00 0.00 40 1001.8
20260906213802 30 322 6.4 22.5 0.00 0.00 0.00 34 1002.2
20260906212802 31 177 12.9 22.5 0.00 0.00 0.00 31 1002.1
20260906211735 31 126 12.9 24.1 0.00 0.00 0.00 32 1002.1
20260906210706 30 126 14.5 25.7 0.00 0.00 0.00 33 1002.2
20260906205704 31 148 12.9 25.7 0.00 0.00 0.00 32 1002.3
20260906204658 32 162 16.1 25.7 0.00 0.00 0.00 32 1002.4
20260906203629 31 182 8.0 19.3 0.00 0.00 0.00 32 1002.6
20260906202630 29 135 4.8 12.9 0.00 0.00 0.00 35 1002.9
20260906201610 30 142 0.0 6.4 0.00 0.00 0.00 33 1002.9
20260906195424 30 89 12.9 19.3 0.00 0.00 0.00 33 1002.9
20260906194411 31 87 6.4 19.3 0.00 0.00 0.00 33 1003.0
20260906193435 30 31 6.4 19.3 0.00 0.00 0.00 32 1003.1
20260906192424 31 79 3.2 17.7 0.00 0.00 0.00 32 1003.3
20260906191446 31 47 9.7 29.0 0.00 0.00 0.00 31 1003.5
20260906190416 31 34 9.7 29.0 0.00 0.00 0.00 31 1003.6
20260906185405 31 32 6.4 17.7 0.00 0.00 0.00 32 1003.8
20260906183211 31 124 6.4 14.5 0.00 0.00 0.00 33 1004.2
20260906182216 31 97 6.4 24.1 0.00 0.00 0.00 33 1004.2
20260906181158 30 19 8.0 24.1 0.00 0.00 0.00 35 1004.4
20260906180132 31 359 4.8 16.1 0.00 0.00 0.00 33 1004.7
20260906175139 30 73 6.4 19.3 0.00 0.00 0.00 34 1004.8
20260906174150 30 85 4.8 20.9 0.00 0.00 0.00 34 1004.9
20260906170745 30 126 6.4 16.1 0.00 0.00 0.00 33 1005.2
20260906165730 30 42 3.2 11.3 0.00 0.00 0.00 35 1005.3
20260906164709 29 34 4.8 11.3 0.00 0.00 0.00 35 1005.3
20260906163646 29 98 4.8 14.5 0.00 0.00 0.00 35 1005.3
20260906162618 28 63 4.8 14.5 0.00 0.00 0.00 36 1005.3
20260906161552 29 64 3.2 8.0 0.00 0.00 0.00 35 1005.3
20260906160548 28 61 6.4 14.5 0.00 0.00 0.00 36 1005.4
20260906155526 29 22 3.2 14.5 0.00 0.00 0.00 36 1005.4
20260906154525 28 45 4.8 12.9 0.00 0.00 0.00 37 1005.4
20260906153505 28 13 6.4 14.5 0.00 0.00 0.00 38 1005.5
20260906152527 28 359 8.0 14.5 0.00 0.00 0.00 38 1005.4
20260906151537 28 344 6.4 14.5 0.00 0.00 0.00 39 1005.5
20260906150520 27 359 6.4 14.5 0.00 0.00 0.00 40 1005.5
20260906145532 27 359 6.4 16.1 0.00 0.00 0.00 39 1005.6
20260906144550 27 353 8.0 16.1 0.00 0.00 0.00 39 1005.7
20260906142422 26 346 6.4 11.3 0.00 0.00 0.00 40 1005.7
20260906141354 26 354 3.2 8.0 0.00 0.00 0.00 41 1005.6
20260906140357 25 4 3.2 6.4 0.00 0.00 0.00 44 1005.6
20260906135336 23 339 1.6 4.8 0.00 0.00 0.00 46 1005.6
20260906134323 23 4 1.6 4.8 0.00 0.00 0.00 44 1005.6
20260906132123 23 353 0.0 6.4 0.00 0.00 0.00 44 1005.4
20260906131143 23 323 3.2 6.4 0.00 0.00 0.00 45 1005.3
20260906130147 23 315 1.6 6.4 0.00 0.00 0.00 45 1005.2
20260906124014 23 335 3.2 6.4 0.00 0.00 0.00 45 1005.0
20260906123012 23 337 3.2 8.0 0.00 0.00 0.00 45 1005.0
20260906121956 23 331 3.2 8.0 0.00 0.00 0.00 45 1005.0
20260906120951 23 333 3.2 6.4 0.00 0.00 0.00 45 1005.0
20260906120002 23 315 3.2 6.4 0.00 0.00 0.00 45 1005.0
20260906115023 23 329 3.2 8.0 0.00 0.00 0.00 45 1004.9
20260906112852 23 334 3.2 8.0 0.00 0.00 0.00 45 1005.0
20260906111903 23 329 3.2 8.0 0.00 0.00 0.00 45 1004.9
20260906105741 23 326 1.6 4.8 0.00 0.00 0.00 45 1004.9
20260906104732 23 322 1.6 4.8 0.00 0.00 0.00 45 1004.9
20260906103756 23 313 3.2 6.4 0.00 0.00 0.00 45 1004.9
20260906102820 23 309 3.2 8.0 0.00 0.00 0.00 45 1004.8
20260906101747 23 299 3.2 11.3 0.00 0.00 0.00 45 1004.9
20260906100800 23 294 6.4 11.3 0.00 0.00 0.00 45 1004.8
20260906095759 23 291 3.2 9.7 0.00 0.00 0.00 46 1004.8
20260906094808 23 270 3.2 6.4 0.00 0.00 0.00 46 1004.9
20260906093800 23 286 3.2 6.4 0.00 0.00 0.00 46 1004.9
20260906092825 23 275 6.4 12.9 0.00 0.00 0.00 46 1004.9
20260906091814 22 262 3.2 12.9 0.00 0.00 0.00 49 1005.0
20260906090749 22 220 3.2 0.0 0.00 0.00 0.00 49 1005.1
20260906085801 22 245 3.2 8.0 0.00 0.00 0.00 49 1005.2
20260906084730 22 250 3.2 6.4 0.00 0.00 0.00 50 1005.3
20260906083754 22 246 3.2 16.1 0.00 0.00 0.00 50 1005.3
20260906082729 22 219 4.8 16.1 0.00 0.00 0.00 51 1005.4
20260906080538 21 222 3.2 4.8 0.00 0.00 0.00 52 1005.5
20260906075520 22 230 1.6 8.0 0.00 0.00 0.00 51 1005.5
20260906074512 22 245 3.2 8.0 0.00 0.00 0.00 50 1005.6
20260906073515 22 254 1.6 6.4 0.00 0.00 0.00 51 1005.6
20260906072533 21 256 3.2 6.4 0.00 0.00 0.00 51 1005.7
20260906071516 21 247 4.8 6.4 0.00 0.00 0.00 51 1005.9
20260906070442 22 237 4.8 8.0 0.00 0.00 0.00 51 1006.0
20260906065507 22 219 6.4 8.0 0.00 0.00 0.00 51 1006.0
20260906064512 22 234 4.8 8.0 0.00 0.00 0.00 51 1006.1
20260906063523 22 228 4.8 6.4 0.00 0.00 0.00 50 1006.0
20260906062514 22 226 4.8 6.4 0.00 0.00 0.00 50 1006.1
20260906060416 22 247 4.8 8.0 0.00 0.00 0.00 49 1006.1
20260906054258 22 236 4.8 6.4 0.00 0.00 0.00 49 1006.0
20260906053237 22 237 4.8 6.4 0.00 0.00 0.00 49 1006.0
20260906052241 22 224 4.8 8.0 0.00 0.00 0.00 50 1005.9
20260906051306 22 214 6.4 8.0 0.00 0.00 0.00 50 1005.9
20260906050320 22 245 4.8 8.0 0.00 0.00 0.00 49 1006.1
20260906045311 22 237 3.2 6.4 0.00 0.00 0.00 49 1006.0
20260906044321 22 192 1.6 6.4 0.00 0.00 0.00 48 1006.0
20260906043337 23 199 3.2 6.4 0.00 0.00 0.00 47 1006.2
20260906042316 23 221 3.2 4.8 0.00 0.00 0.00 47 1006.1
20260906041329 23 221 3.2 4.8 0.00 0.00 0.00 45 1006.1
20260906040354 23 225 3.2 4.8 0.00 0.00 0.00 45 1006.2
20260906035410 23 231 1.6 4.8 0.00 0.00 0.00 45 1006.2
20260906034355 24 261 3.2 6.4 0.00 0.00 0.00 44 1006.1
20260906033350 23 281 4.8 6.4 0.00 0.00 0.00 44 1006.0
20260906032356 23 296 3.2 6.4 0.00 0.00 0.00 46 1005.8
20260906031327 23 50 0.0 1.6 0.00 0.00 0.00 47 1005.8
20260906030344 23 50 0.0 1.6 0.00 0.00 0.00 49 1005.7
20260906025342 23 50 0.0 1.6 0.00 0.00 0.00 50 1005.7
20260906024347 23 50 0.0 0.0 0.00 0.00 0.00 51 1005.5
20260906023359 23 49 0.0 1.6 0.00 0.00 0.00 50 1005.3
20260906022335 23 49 0.0 0.0 0.00 0.00 0.00 49 1005.3
20260906021335 24 50 0.0 1.6 0.00 0.00 0.00 49 1005.2
20260906020348 24 50 0.0 0.0 0.00 0.00 0.00 48 1005.0
20260906015352 24 50 0.0 1.6 0.00 0.00 0.00 48 1005.0
20260906013309 25 49 0.0 0.0 0.00 0.00 0.00 46 1005.1
20260906012306 25 49 0.0 0.0 0.00 0.00 0.00 45 1005.0
20260906011241 26 50 0.0 0.0 0.00 0.00 0.00 46 1005.0
20260906010253 26 49 0.0 6.4 0.00 0.00 0.00 47 1005.1
20260906005238 26 32 3.2 6.4 0.00 0.00 0.00 47 1005.2
20260906004215 25 346 1.6 8.0 0.00 0.00 0.00 48 1005.2
20260906003208 25 344 3.2 8.0 0.00 0.00 0.00 54 1005.3
20260906002227 23 4 3.2 6.4 0.00 0.00 0.00 61 1005.3
20260906001228 23 107 0.0 1.6 0.00 0.00 0.00 59 1005.5
20260906000156 23 150 1.6 6.4 0.00 0.00 0.00 59 1005.8
20260905235208 24 177 4.8 14.5 0.00 0.00 0.00 52 1005.8
20260905233032 24 276 8.0 19.3 0.00 0.00 0.00 50 1005.5
20260905230809 23 260 17.7 29.0 0.00 0.00 0.00 54 1005.0
20260905225817 23 304 20.9 35.4 0.00 0.00 0.00 54 1004.9
20260905224817 24 314 20.9 35.4 0.00 0.00 0.00 53 1005.0
20260905223832 28 313 11.3 27.4 0.00 0.00 0.00 41 1004.9
20260905222812 29 9 6.4 14.5 0.00 0.00 0.00 37 1004.7